Location: Sabalos
(43.2860°N, 0.1414°E)
Time: 07:42:14
(UTC+00:00)

Elektron 1 - Pass Details

Date: 05 July 2020
Orbit: 404 x 6310 km, 60.8° (Epoch: 14 August)

Event Time Altitude Azimuth Distance (km) Brightness Sun altitude
Exits shadow 22:21:32 65° 118° (ESE) 538 4.0 -19.9°
Drops below altitude 10° 22:25:51 10° 44° (NE) 2,234 7.7 -20.3°
Sets 22:29:08 0° 42° (NE) 3,736 8.9 -20.5°
